EW1979 Weather Reports


time (UTC)temp
F
wind
direction
speed
knots
gust
knots
rain 1hr
in
rain 24hr
in
rain mn
in
humidity
%
barometer
mb
20260508044607 61 11 0.0 0.0 0.00 0.00 0.00 79 1012.7
20260508043004 61 12 0.0 0.0 0.00 0.00 0.00 78 1013.1
20260508041508 61 13 0.0 0.0 0.00 0.00 0.00 77 1013.4
20260508034603 61 69 0.0 0.0 0.00 0.00 0.00 77 1011.2
20260508031504 61 53 0.0 0.0 0.00 0.00 0.00 79 1012.2
20260508030011 61 51 0.0 0.0 0.00 0.00 0.00 79 1013.0
20260508024604 61 51 0.0 0.0 0.00 0.00 0.00 78 1013.0
20260508023106 61 52 0.0 0.0 0.00 0.00 0.00 78 1013.4
20260508020109 61 52 0.0 0.0 0.00 0.00 0.00 78 1013.1
20260508011603 61 51 0.0 0.0 0.00 0.00 0.00 76 1011.8
20260508004502 62 30 0.0 0.0 0.00 0.00 0.00 74 1011.1
20260508003122 62 57 0.0 0.0 0.00 0.00 0.00 73 1010.9
20260508001616 63 314 0.0 0.0 0.00 0.00 0.00 71 1011.4
20260508000135 63 90 0.0 0.0 0.00 0.00 0.00 70 1009.0
20260507234503 63 105 0.0 0.0 0.00 0.00 0.00 71 1010.8
20260507233008 63 66 0.0 0.0 0.00 0.00 0.00 71 1011.7
20260507230016 64 60 0.0 0.0 0.00 0.00 0.00 70 1012.8
20260507224602 65 65 0.0 0.0 0.00 0.00 0.00 68 1012.6
20260507223105 65 88 0.0 0.0 0.00 0.00 0.00 69 1012.6
20260507221507 65 12 0.0 0.0 0.00 0.00 0.00 70 1012.7
20260507214603 65 49 0.0 0.0 0.00 0.00 0.00 70 1012.7
20260507213006 64 79 0.0 0.0 0.00 0.00 0.00 74 1012.8
20260507211503 65 11 0.0 0.0 0.00 0.00 0.00 71 1013.4
20260507210004 65 22 0.0 0.0 0.00 0.00 0.00 70 1013.4
20260507204503 64 64 0.0 0.0 0.00 0.00 0.00 74 1013.2
20260507201508 64 49 0.0 0.0 0.00 0.00 0.00 73 1013.2
20260507200007 63 5 0.0 0.0 0.00 0.00 0.00 75 1013.1
20260507194502 62 16 0.0 0.0 0.00 0.00 0.00 75 1012.9
20260507193102 61 23 0.0 0.0 0.00 0.00 0.00 75 1013.7
20260507191507 59 5 0.0 0.0 0.00 0.00 0.00 74 1014.5
20260507190004 59 360 0.0 0.0 0.00 0.00 0.00 72 1014.3
20260507184604 58 360 0.0 0.0 0.00 0.00 0.00 66 1014.8
20260507183103 58 360 0.0 0.0 0.00 0.00 0.00 65 1015.0
20260507181607 57 327 0.0 0.0 0.00 0.00 0.00 66 1014.4
20260507173014 58 27 0.0 0.0 0.00 0.00 0.00 74 1015.3
20260507170008 57 5 0.0 0.0 0.00 0.00 0.00 73 1015.0
20260507163102 57 22 0.0 0.0 0.00 0.00 0.00 72 1015.5
20260507154504 56 355 0.0 0.0 0.00 0.00 0.00 56 1014.9
20260507153114 56 37 0.0 0.0 0.00 0.00 0.00 47 1015.0
20260507150007 55 355 0.0 0.0 0.00 0.00 0.00 30 1015.6
20260507144505 55 14 0.0 0.0 0.00 0.00 0.00 26 1015.7
20260507143008 55 13 0.0 0.0 0.00 0.00 0.00 28 1015.4
20260507141502 55 24 0.0 0.0 0.00 0.00 0.00 29 1015.4
20260507140002 55 5 0.0 0.0 0.00 0.00 0.00 31 1015.2
20260507134502 55 5 0.0 0.0 0.00 0.00 0.00 36 1015.5
20260507133103 56 341 0.0 0.0 0.00 0.00 0.00 40 1015.1
20260507131503 56 360 0.0 0.0 0.00 0.00 0.00 45 1015.2
20260507130008 56 5 0.0 0.0 0.00 0.00 0.00 50 1015.3
20260507124621 56 11 0.0 0.0 0.00 0.00 0.00 55 1014.2
20260507123110 56 5 0.0 0.0 0.00 0.00 0.00 60 1014.2
20260507121506 57 11 0.0 0.0 0.00 0.00 0.00 62 1014.2
20260507111507 57 5 0.0 0.0 0.00 0.00 0.00 68 1013.3
20260507110003 57 16 0.0 0.0 0.00 0.00 0.00 68 1013.0
20260507104605 58 5 0.0 0.0 0.00 0.00 0.00 68 1012.5
20260507103115 58 15 0.0 0.0 0.00 0.00 0.00 67 1012.6
20260507101503 58 11 0.0 0.0 0.00 0.00 0.00 68 1012.6
20260507093003 59 9 0.0 0.0 0.00 0.00 0.00 65 1012.1
20260507091509 59 5 0.0 0.0 0.00 0.00 0.00 65 1012.1
20260507084603 59 9 0.0 0.0 0.00 0.00 0.00 63 1011.3
20260507081504 59 11 0.0 0.0 0.00 0.00 0.00 60 1011.6
20260507080007 59 11 0.0 0.0 0.00 0.00 0.00 59 1011.9
20260507074507 59 11 0.0 0.0 0.00 0.00 0.00 59 1011.7
20260507071516 59 5 0.0 0.0 0.00 0.00 0.00 61 1011.4
20260507070008 59 5 0.0 0.0 0.00 0.00 0.00 62 1011.5
20260507061603 59 5 0.0 0.0 0.00 0.00 0.00 66 1011.2
20260507054503 59 5 0.0 0.0 0.00 0.00 0.00 67 1010.9
20260507053003 60 5 0.0 0.0 0.00 0.00 0.00 65 1011.0
20260507051508 60 5 0.0 0.0 0.00 0.00 0.00 64 1010.7